EWG59MG EDDS-LIEO

Flight info

Callsign EWG59MG
Flight time N/A
Altitude 37000
Route ROTWE5B ROTWE Y126 TUBLO N850 NATOR DCT TRA DCT RIPUS DCT GERSA DCT SOSON DCT ODINA DCT BOTAL DCT SPEZI DCT BEGUD DCT BATOX
Aircraft A319/M-SDE3FGHIRWY/LB1

Departure

Time 2026-05-06 08:17
Airport Stuttgart Airport (EDDS)

Arrival

Time N/A
Airport Olbia Costa Smeralda Airport (LIEO)
Time Latitude Longitude Altitude Speed Heading
2026-05-06 08:01 48.68716 9.19264 1314 ft 0 kts 164°
2026-05-06 08:12 48.68716 9.19265 1314 ft 1 kts 164°
2026-05-06 08:12 48.68687 9.19277 1313 ft 7 kts 163°
2026-05-06 08:12 48.68673 9.19348 1311 ft 10 kts 89°
2026-05-06 08:13 48.68688 9.19485 1307 ft 16 kts 73°
2026-05-06 08:13 48.68724 9.19673 1301 ft 21 kts 75°
2026-05-06 08:13 48.68774 9.19906 1295 ft 26 kts 64°
2026-05-06 08:13 48.68864 9.20151 1292 ft 28 kts 73°
2026-05-06 08:14 48.68921 9.20463 1286 ft 33 kts 73°
2026-05-06 08:14 48.68988 9.20827 1275 ft 38 kts 75°
2026-05-06 08:14 48.69067 9.21238 1272 ft 43 kts 74°
2026-05-06 08:14 48.69155 9.21703 1260 ft 49 kts 74°
2026-05-06 08:15 48.69253 9.22217 1251 ft 54 kts 73°
2026-05-06 08:15 48.69359 9.22786 1230 ft 58 kts 74°
2026-05-06 08:15 48.69463 9.23329 1219 ft 36 kts 73°
2026-05-06 08:15 48.69538 9.23718 1211 ft 41 kts 74°
2026-05-06 08:16 48.69603 9.24081 1203 ft 34 kts 81°
2026-05-06 08:16 48.69464 9.24331 1190 ft 33 kts 173°
2026-05-06 08:16 48.69359 9.24162 1194 ft 30 kts 253°
2026-05-06 08:16 48.69249 9.23582 1206 ft 84 kts 254°
2026-05-06 08:17 48.69036 9.22473 1228 ft 135 kts 254°
2026-05-06 08:17 48.68753 9.20965 1539 ft 151 kts 252°
2026-05-06 08:17 48.68483 9.19440 2171 ft 150 kts 255°
2026-05-06 08:17 48.68201 9.17892 2648 ft 159 kts 255°
2026-05-06 08:18 48.67879 9.16156 2936 ft 182 kts 254°
2026-05-06 08:18 48.67360 9.14316 3203 ft 208 kts 232°
2026-05-06 08:18 48.66298 9.12649 3646 ft 233 kts 226°
2026-05-06 08:18 48.65136 9.10767 4236 ft 254 kts 228°
2026-05-06 08:19 48.63927 9.08738 5153 ft 261 kts 228°
2026-05-06 08:19 48.62483 9.07043 6116 ft 268 kts 207°
2026-05-06 08:19 48.60790 9.05851 7089 ft 269 kts 205°
2026-05-06 08:19 48.59081 9.04672 8075 ft 271 kts 205°
2026-05-06 08:20 48.57356 9.03489 9067 ft 273 kts 205°
2026-05-06 08:20 48.56205 9.02703 9722 ft 274 kts 205°
2026-05-06 08:20 48.54430 9.01488 10287 ft 290 kts 205°
2026-05-06 08:20 48.52519 9.00173 10602 ft 312 kts 204°
2026-05-06 08:21 48.50513 8.98792 11240 ft 320 kts 204°
2026-05-06 08:21 48.48477 8.97396 12012 ft 324 kts 204°
2026-05-06 08:21 48.46412 8.95982 12794 ft 327 kts 204°
2026-05-06 08:21 48.44328 8.94556 13580 ft 330 kts 204°
2026-05-06 08:22 48.42225 8.93111 14255 ft 334 kts 204°
2026-05-06 08:22 48.40099 8.91651 14909 ft 338 kts 204°
2026-05-06 08:22 48.37944 8.90174 15565 ft 342 kts 204°
2026-05-06 08:22 48.35763 8.88684 16212 ft 346 kts 204°
2026-05-06 08:23 48.33555 8.87178 16857 ft 350 kts 204°
2026-05-06 08:23 48.31325 8.85657 17507 ft 354 kts 204°
2026-05-06 08:23 48.29071 8.84117 18140 ft 358 kts 204°
2026-05-06 08:23 48.26794 8.82562 18721 ft 361 kts 204°
2026-05-06 08:24 48.24493 8.80995 19359 ft 363 kts 204°
2026-05-06 08:24 48.22193 8.79436 20009 ft 364 kts 204°
2026-05-06 08:24 48.19870 8.77865 20661 ft 366 kts 204°
2026-05-06 08:24 48.17578 8.76318 21294 ft 367 kts 204°
2026-05-06 08:25 48.15252 8.74747 21913 ft 368 kts 204°
2026-05-06 08:25 48.12912 8.73163 22532 ft 370 kts 204°
2026-05-06 08:25 48.10564 8.71571 23135 ft 371 kts 203°
2026-05-06 08:25 48.08204 8.69974 23640 ft 374 kts 203°
2026-05-06 08:26 48.05822 8.68364 24118 ft 376 kts 203°
2026-05-06 08:26 48.03437 8.66757 24599 ft 377 kts 203°
2026-05-06 08:26 48.01030 8.65139 25082 ft 379 kts 203°
2026-05-06 08:26 47.98627 8.63524 25554 ft 380 kts 203°
2026-05-06 08:27 47.96231 8.61913 26037 ft 381 kts 203°
2026-05-06 08:27 47.93808 8.60286 26511 ft 383 kts 203°
2026-05-06 08:27 47.91373 8.58655 26976 ft 384 kts 203°
2026-05-06 08:27 47.88934 8.57022 27439 ft 386 kts 203°
2026-05-06 08:28 47.86484 8.55381 27901 ft 387 kts 203°
2026-05-06 08:28 47.84017 8.53731 28377 ft 389 kts 203°
2026-05-06 08:28 47.81545 8.52078 28821 ft 390 kts 204°
2026-05-06 08:28 47.79059 8.50422 29263 ft 392 kts 204°
2026-05-06 08:29 47.76569 8.48766 29701 ft 393 kts 204°
2026-05-06 08:29 47.74077 8.47110 30088 ft 394 kts 204°
2026-05-06 08:29 47.71541 8.45508 30419 ft 396 kts 199°
2026-05-06 08:29 47.68916 8.44501 30741 ft 398 kts 191°
2026-05-06 08:30 47.66147 8.44186 31083 ft 402 kts 182°
2026-05-06 08:30 47.63341 8.44514 31417 ft 405 kts 178°
2026-05-06 08:30 47.60550 8.44939 31852 ft 403 kts 178°
2026-05-06 08:30 47.57761 8.45360 32301 ft 401 kts 178°
2026-05-06 08:31 47.54989 8.45774 32754 ft 400 kts 178°
2026-05-06 08:31 47.52217 8.46182 33178 ft 398 kts 178°
2026-05-06 08:31 47.49459 8.46589 33613 ft 397 kts 179°
2026-05-06 08:31 47.46714 8.46990 34005 ft 396 kts 179°
2026-05-06 08:32 47.43968 8.47387 34324 ft 397 kts 179°
2026-05-06 08:32 47.41207 8.47783 34613 ft 398 kts 178°
2026-05-06 08:32 47.38448 8.48177 34889 ft 400 kts 178°
2026-05-06 08:32 47.35706 8.48574 35149 ft 401 kts 178°
2026-05-06 08:33 47.32926 8.48983 35435 ft 403 kts 178°
2026-05-06 08:33 47.30144 8.49392 35716 ft 404 kts 178°
2026-05-06 08:33 47.27336 8.49806 35993 ft 405 kts 178°
2026-05-06 08:33 47.24522 8.50217 36229 ft 407 kts 178°
2026-05-06 08:34 47.21701 8.50629 36473 ft 409 kts 178°
2026-05-06 08:34 47.16013 8.51459 36820 ft 411 kts 178°
2026-05-06 08:35 47.10312 8.52285 36837 ft 411 kts 178°
2026-05-06 08:35 47.04621 8.53104 36838 ft 412 kts 178°
2026-05-06 08:36 46.98919 8.53924 36837 ft 414 kts 178°
2026-05-06 08:36 46.93194 8.54760 36840 ft 413 kts 178°
2026-05-06 08:37 46.87468 8.55588 36838 ft 413 kts 178°
2026-05-06 08:37 46.81755 8.56412 36831 ft 413 kts 178°
2026-05-06 08:38 46.76026 8.57226 36819 ft 413 kts 179°
2026-05-06 08:38 46.70330 8.58031 36835 ft 414 kts 179°
2026-05-06 08:39 46.64588 8.58854 36842 ft 414 kts 179°
2026-05-06 08:39 46.58848 8.59680 36848 ft 414 kts 179°
2026-05-06 08:40 46.53097 8.60491 36857 ft 414 kts 179°
2026-05-06 08:40 46.47363 8.61298 36862 ft 415 kts 179°
2026-05-06 08:41 46.41618 8.62113 36875 ft 415 kts 179°
2026-05-06 08:41 46.35911 8.62926 36865 ft 414 kts 179°
2026-05-06 08:42 46.30167 8.63732 36862 ft 415 kts 179°
2026-05-06 08:42 46.24431 8.64533 36855 ft 415 kts 179°
2026-05-06 08:43 46.18675 8.65335 36863 ft 414 kts 179°
2026-05-06 08:43 46.12941 8.66140 36869 ft 414 kts 179°
2026-05-06 08:44 46.07288 8.67984 36871 ft 421 kts 167°
2026-05-06 08:44 46.01722 8.70673 36869 ft 422 kts 167°
2026-05-06 08:45 45.96154 8.73337 36841 ft 420 kts 168°
2026-05-06 08:45 45.90646 8.75954 36854 ft 420 kts 168°
2026-05-06 08:46 45.85099 8.78596 36862 ft 420 kts 168°